Regional Weather Roundup
Issued by NWS

Home | Current Version | Previous Version | Graphics & Text | Print | Product List | Glossary On
Versions: 1 2 3 4 5 6 7 8 9 10 11 12 13 14 15 16 17 18 19 20 21 22 23 24 25 26 27 28 29 30 31 32 33 34 35 36 37 38 39 40 41 42 43 44 45 46 47 48 49 50
000
ASUS43 KDTX 182210
RWRMI
MICHIGAN HOURLY REGIONAL WEATHER ROUNDUP
NATIONAL WEATHER SERVICE DETROIT/PONTIAC MI
600 PM EDT MON SEP 18 2017

NOTE: "FAIR" INDICATES FEW OR NO CLOUDS BELOW 12,000 FEET WITH NO
SIGNIFICANT WEATHER AND/OR OBSTRUCTION TO VISIBILITY.

MIZ047>049-052>055-059>063-066>070-074>076-081>083-182300-
SOUTHEAST LOWER MICHIGAN

CITY           SKY/WX    TMP DP  RH WIND       PRES   REMARKS
ADRIAN         CLOUDY    77  63  61 N3        30.03F
ALMA           SUNNY     74  47  37 CALM      30.06S
ANN ARBOR      CLOUDY    72  67  84 MISG      30.04S
BAD AXE        MOSUNNY   68  54  61 NE6       30.09S
CARO           MOSUNNY   71  56  58 E6        30.07R
DETROIT CITY   CLOUDY    66  63  90 E8        30.06S
DETROIT        CLOUDY    69  64  84 NE8       30.05F
FLINT          SUNNY     73  59  61 E3        30.05S
GROSSE ILE     LGT RAIN  66  64  94 NE13      30.04S
HILLSDALE      MOSUNNY   72  55  56 N3        30.04S
HOWELL         SUNNY     73  59  63 NE3       30.05S

CITY           SKY/WX    TMP DP  RH WIND       PRES   REMARKS
JACKSON        CLOUDY    78  57  48 E7        30.03F
LAMBERTVILLE   CLOUDY    73  69  88 N6        30.03S FOG
LANSING        SUNNY     76  55  48 NE7       30.05S
LAPEER         CLOUDY    70  59  66 E3        30.07S
MASON          SUNNY     76  55  47 CALM      30.05S
MONROE         DRIZZLE   69  67  91 NE7       30.04R
MT. CLEMENS    CLOUDY    67  63  87 NE6       30.04F
PONTIAC        PTSUNNY   70  63  78 NE8       30.05S
PORT HOPE        N/A     65  55  70 NE9       30.08S
PORT HURON     CLOUDY    68  59  73 N5        30.07S
TRI CITIES     SUNNY     74  55  51 E6        30.07S
MIDLAND        FAIR      75  53  46 NW3       30.06R
TROY           PTSUNNY   68  64  84 NE7       30.07S
SAGINAW HB     SUNNY     72  54  53 NE7       30.06S
$$
MIZ043>046-050>051-056>058-064>065-071>073-077>080-182300-
SOUTHWEST LOWER MICHIGAN

CITY           SKY/WX    TMP DP  RH WIND       PRES   REMARKS
BATTLE CREEK   SUNNY     78  47  33 SW6       30.04F
BENTON HARBOR  SUNNY     71  58  63 NW5       30.03S
BIG RAPIDS     SUNNY     72  46  40 SE5       30.06S
COLDWATER      MOSUNNY   75  53  47 NE6       30.03F
FREMONT        FAIR      75  48  38 NE5       30.04S
HOLLAND        SUNNY     72  60  66 NW6       30.04F
GRAND RAPIDS   MOSUNNY   78  52  40 E7        30.03F
IONIA          FAIR      75  54  47 CALM      30.04S
KALAMAZOO      SUNNY     79  46  31 NE3       30.03F
LUDINGTON      SUNNY     69  55  62 N9        30.05S
MARSHALL       SUNNY     76  53  45 CALM      30.03F
MOUNT PLEASANT SUNNY     75  49  40 CALM      30.06R
MUSKEGON       MOSUNNY   71  57  61 NW7       30.04F
SOUTH HAVEN    SUNNY     72  59  64 N6        30.03S
$$
MIZ016>042-182300-
NORTHERN LOWER MICHIGAN

CITY           SKY/WX    TMP DP  RH WIND       PRES   REMARKS
ALPENA         SUNNY     68  44  42 N7        30.10R
BEAVER ISLAND  SUNNY     64  50  59 W10       30.12R
BELLAIRE       SUNNY     68  51  54 CALM      30.08S
CADILLAC       SUNNY     72  46  39 N6        30.08S
CHARLEVOIX     SUNNY     64  40  40 NW6       30.13S
FRANKFORT      MOSUNNY   66  54  63 N8        30.08S
GAYLORD        SUNNY     67  44  43 E5        30.10S
GRAYLING       SUNNY     69  47  45 N5        30.10S
HARBOR SPRINGS SUNNY     66  47  50 CALM      30.10S
HOUGHTON LAKE  SUNNY     73  47  39 CALM      30.09S
MANISTEE       SUNNY     70  56  61 NW10      30.06S
OSCODA         SUNNY     67  53  61 NE9       30.08F
PELLSTON       SUNNY     70  47  43 E6        30.10R
ROGERS CITY    SUNNY     65  46  49 N6        30.11S
TRAVERSE CITY  MOSUNNY   68  52  56 N6        30.08S
$$
MIZ007>008-015-182300-
EASTERN UPPER MICHIGAN

CITY           SKY/WX    TMP DP  RH WIND       PRES   REMARKS
KINROSS        SUNNY     65  47  52 N8        30.10S
MACKINAC ISLAN SUNNY     65  49  55 SW3       30.09S
NEWBERRY       SUNNY     65  44  46 N6        30.10R
S. S. MARIE    SUNNY     64  51  62 NW9       30.10R
MUNISING         N/A     60  53  77 NE8       30.10F
$$
MIZ004>006-011>014-085-182300-
CENTRAL UPPER MICHIGAN

CITY           SKY/WX    TMP DP  RH WIND       PRES   REMARKS
MANISTIQUE       N/A     62  46  56 S6        30.10
ESCANABA       PTSUNNY   62  51  67 S3        30.10F
MENOMINEE      MOSUNNY   63  54  72 E8        30.09F
SAWYER-GWINN   MOSUNNY   63  52  67 NE5       30.10S
$$
MIZ001>003-009>011-084-182300-
WESTERN UPPER MICHIGAN

CITY           SKY/WX    TMP DP  RH WIND       PRES   REMARKS
IRON MOUNTAIN  CLOUDY    66  51  58 CALM      30.09S
HOUGHTON       LGT RAIN  57  52  83 SE5       30.09S
COPPER HARBOR    N/A     58  49  72 SW9       30.08F
IRONWOOD       LGT RAIN  55  52  89 E6        30.05F
$$

ABBREVIATIONS USED IN REMARKS
   TC - TEMPERATURE IN CELSIUS
  WCI - WIND CHILL INDEX
   HX - HEAT INDEX
  VSB - VISIBILITY





USA.gov is the U.S. government's official web portal to all federal, state and local government web resources and services.